Crystal River, FL

2:20 PM EST on February 14, 2016 (GMT -0500)
Crystal River

Weather History for KCGC - January, 2013

Change the Weather History Date:

Sunday, January 13, 2013

  Actual Average (KGNV) Record (KGNV)
Temperature  
Mean Temperature 70 °F 54 °F  
Max Temperature 80 °F 66 °F 86 °F (1932)
Min Temperature 59 °F 42 °F 14 °F (1981)
Degree Days  
Heating Degree Days 0 11  
Month to date heating degree days 151  
Since 1 July heating degree days 608  
Cooling Degree Days 5 0  
Month to date cooling degree days 0  
Year to date cooling degree days 0  
Growing Degree Days 20 (Base 50)    
Moisture  
Dew Point 63 °F    
Average Humidity 81    
Maximum Humidity 100    
Minimum Humidity 51    
Precipitation  
Precipitation 0.00 in 0.11 in 1.40 in (1980)
Month to date precipitation 1.20  
Year to date precipitation 1.20  
Snow  
Snow 0.00 in 0.00 in 0.00 in ()
Month to date snowfall 0.0  
Since 1 July snowfall 0.0  
Snow Depth -    
Sea Level Pressure  
Sea Level Pressure 30.11 in    
Wind  
Wind Speed 2 mph (SSE)    
Max Wind Speed 8 mph    
Max Gust Speed -    
Visibility 10 miles    
Events      
T = Trace of Precipitation, MM = Missing Value Source: NWS Daily Summary

Daily Weather History Graph

Daily Weather History Graph

Search for Another Location

Airport or City:

Trip Planner

Search our weather history database for the weather conditions in past years. The results will help you decide how hot, cold, wet, or windy it might be!

Date:

Astronomy

Jan. 13, 2013 Rise Set
Actual Time 7:24 AM EST 5:53 PM EST
Civil Twilight 6:59 AM EST 6:19 PM EST
Nautical Twilight 6:30 AM EST 6:48 PM EST
Astronomical Twilight 6:01 AM EST 7:16 PM EST
Moon 8:35 AM EST (1/13) 8:15 PM EST (1/13)
Length of Visible Light 11h 20m
Length of Day
10h 28m
Waxing Crescent, 5% of the Moon is Illuminated
Jan 13
Waxing Crescent
Jan 18
First Quarter
Jan 26
Full
Feb 3
Last Quarter
Feb 10
New

Hourly Weather History & Observations

Time (EST) Temp. Heat Index Dew Point Humidity Pressure Visibility Wind Dir Wind Speed Gust Speed Precip Events Conditions
12:15 AM 68.0 °F - 62.6 °F 83% 30.11 in 10.0 mi Calm Calm - N/A   Overcast
12:35 AM 68.0 °F - 62.6 °F 83% 30.11 in 10.0 mi SE 3.5 mph - N/A   Overcast
12:55 AM 68.0 °F - 62.6 °F 83% 30.11 in 10.0 mi Calm Calm - N/A   Overcast
1:15 AM 66.2 °F - 62.6 °F 88% 30.11 in 10.0 mi Calm Calm - N/A   Mostly Cloudy
1:35 AM 64.4 °F - 62.6 °F 94% 30.11 in 10.0 mi Calm Calm - N/A   Overcast
1:55 AM 66.2 °F - 64.4 °F 94% 30.11 in 10.0 mi Calm Calm - N/A   Overcast
2:15 AM 68.0 °F - 64.4 °F 88% 30.11 in 10.0 mi ESE 3.5 mph - N/A   Overcast
2:35 AM 66.2 °F - 64.4 °F 94% 30.11 in 10.0 mi ESE 3.5 mph - N/A   Overcast
2:55 AM 66.2 °F - 64.4 °F 94% 30.10 in 10.0 mi ESE 3.5 mph - N/A   Overcast
3:15 AM 64.4 °F - 64.4 °F 100% 30.09 in 10.0 mi ESE 3.5 mph - N/A   Scattered Clouds
3:55 AM 64.4 °F - 64.4 °F 100% 30.09 in 10.0 mi ESE 3.5 mph - N/A   Overcast
4:15 AM 66.2 °F - 64.4 °F 94% 30.09 in 10.0 mi ESE 3.5 mph - N/A   Overcast
4:35 AM 66.2 °F - 64.4 °F 94% 30.09 in 10.0 mi Calm Calm - N/A   Overcast
4:55 AM 66.2 °F - 64.4 °F 94% 30.08 in 10.0 mi ESE 4.6 mph - N/A   Overcast
5:15 AM 64.4 °F - 64.4 °F 100% 30.08 in 10.0 mi SE 3.5 mph - N/A   Overcast
5:35 AM 64.4 °F - 64.4 °F 100% 30.08 in 10.0 mi ESE 3.5 mph - N/A   Overcast
5:55 AM 64.4 °F - 62.6 °F 94% 30.09 in 10.0 mi Calm Calm - N/A   Overcast
6:15 AM 64.4 °F - 62.6 °F 94% 30.09 in 10.0 mi Calm Calm - N/A   Overcast
6:35 AM 64.4 °F - 62.6 °F 94% 30.09 in 10.0 mi Calm Calm - N/A   Overcast
7:15 AM 64.4 °F - 62.6 °F 94% 30.09 in 10.0 mi ESE 3.5 mph - N/A   Overcast
7:35 AM 64.4 °F - 62.6 °F 94% 30.10 in 10.0 mi Calm Calm - N/A   Overcast
7:55 AM 64.4 °F - 62.6 °F 94% 30.12 in 10.0 mi Calm Calm - N/A   Overcast
8:15 AM 66.2 °F - 62.6 °F 88% 30.13 in 10.0 mi Calm Calm - N/A   Overcast
8:35 AM 66.2 °F - 62.6 °F 88% 30.14 in 10.0 mi East 3.5 mph - N/A   Overcast
8:55 AM 69.8 °F - 62.6 °F 78% 30.16 in 10.0 mi Calm Calm - N/A   Overcast
9:15 AM 71.6 °F - 62.6 °F 73% 30.17 in 10.0 mi SE 4.6 mph - N/A   Overcast
9:35 AM 69.8 °F - 62.6 °F 78% 30.18 in 10.0 mi Calm Calm - N/A   Mostly Cloudy
9:55 AM 71.6 °F - 62.6 °F 73% 30.18 in 10.0 mi Calm Calm - N/A   Mostly Cloudy
10:15 AM 73.4 °F - 62.6 °F 69% 30.18 in 5.0 mi Calm Calm - N/A   Haze
10:35 AM 73.4 °F - 62.6 °F 69% 30.18 in 10.0 mi SE 3.5 mph - N/A   Mostly Cloudy
10:55 AM 77.0 °F - 62.6 °F 61% 30.17 in 10.0 mi SE 3.5 mph - N/A   Scattered Clouds
11:15 AM 77.0 °F - 62.6 °F 61% 30.16 in 4.0 mi SSE 3.5 mph - N/A   Haze
11:35 AM 78.8 °F - 60.8 °F 54% 30.14 in 10.0 mi SE 5.8 mph - N/A   Clear
11:55 AM 78.8 °F - 62.6 °F 57% 30.13 in 10.0 mi SE 4.6 mph - N/A   Scattered Clouds
12:15 PM 78.8 °F - 60.8 °F 54% 30.12 in 10.0 mi Calm Calm - N/A   Scattered Clouds
12:35 PM 78.8 °F - 60.8 °F 54% 30.11 in 10.0 mi SE 6.9 mph - N/A   Scattered Clouds
12:55 PM 80.6 °F 81.5 °F 60.8 °F 51% 30.10 in 10.0 mi ENE 4.6 mph - N/A   Scattered Clouds
1:15 PM 80.6 °F 81.5 °F 60.8 °F 51% 30.09 in 10.0 mi SSE 6.9 mph - N/A   Scattered Clouds
1:35 PM 80.6 °F 81.5 °F 60.8 °F 51% 30.08 in 10.0 mi SSW 4.6 mph - N/A   Scattered Clouds
1:55 PM 80.6 °F 81.5 °F 60.8 °F 51% 30.08 in 10.0 mi South 4.6 mph - N/A   Mostly Cloudy
2:15 PM 80.6 °F 81.5 °F 60.8 °F 51% 30.08 in 10.0 mi SSE 3.5 mph - N/A   Scattered Clouds
2:35 PM 80.6 °F 81.5 °F 60.8 °F 51% 30.09 in 10.0 mi Calm Calm - N/A   Scattered Clouds
2:55 PM 80.6 °F 82.3 °F 64.4 °F 58% 30.08 in 10.0 mi WNW 3.5 mph - N/A   Mostly Cloudy
3:15 PM 78.8 °F - 64.4 °F 61% 30.09 in 10.0 mi WSW 8.1 mph - N/A   Scattered Clouds
3:35 PM 78.8 °F - 64.4 °F 61% 30.09 in 10.0 mi WSW 4.6 mph - N/A   Clear
3:55 PM 77.0 °F - 64.4 °F 65% 30.10 in 10.0 mi West 8.1 mph - N/A   Clear
4:15 PM 77.0 °F - 64.4 °F 65% 30.11 in 10.0 mi West 5.8 mph - N/A   Clear
4:35 PM 77.0 °F - 64.4 °F 65% 30.11 in 10.0 mi WSW 3.5 mph - N/A   Clear
4:55 PM 75.2 °F - 64.4 °F 69% 30.10 in 10.0 mi WSW 3.5 mph - N/A   Clear
5:15 PM 73.4 °F - 64.4 °F 73% 30.11 in 10.0 mi West 3.5 mph - N/A   Clear
5:35 PM 73.4 °F - 64.4 °F 73% 30.10 in 10.0 mi Calm Calm - N/A   Clear
5:55 PM 71.6 °F - 64.4 °F 78% 30.10 in 10.0 mi Calm Calm - N/A   Clear
6:15 PM 69.8 °F - 64.4 °F 83% 30.10 in 10.0 mi Calm Calm - N/A   Clear
6:35 PM 68.0 °F - 64.4 °F 88% 30.10 in 10.0 mi Calm Calm - N/A   Clear
7:15 PM 66.2 °F - 64.4 °F 94% 30.10 in 10.0 mi Calm Calm - N/A   Clear
7:35 PM 64.4 °F - 62.6 °F 94% 30.10 in 10.0 mi Calm Calm - N/A   Clear
7:55 PM 64.4 °F - 62.6 °F 94% 30.10 in 10.0 mi Calm Calm - N/A   Clear
8:15 PM 62.6 °F - 62.6 °F 100% 30.10 in 10.0 mi Calm Calm - N/A   Clear
8:35 PM 62.6 °F - 62.6 °F 100% 30.10 in 10.0 mi Calm Calm - N/A   Clear
8:55 PM 62.6 °F - 60.8 °F 94% 30.10 in 10.0 mi Calm Calm - N/A   Clear
9:15 PM 62.6 °F - 62.6 °F 100% 30.11 in 10.0 mi West 3.5 mph - N/A   Scattered Clouds
9:35 PM 64.4 °F - 62.6 °F 94% 30.13 in 10.0 mi East 3.5 mph - N/A   Overcast
9:55 PM 64.4 °F - 62.6 °F 94% 30.13 in 10.0 mi Calm Calm - N/A   Scattered Clouds
10:15 PM 62.6 °F - 62.6 °F 100% 30.13 in 10.0 mi Calm Calm - N/A   Scattered Clouds
10:35 PM 62.6 °F - 60.8 °F 94% 30.14 in 10.0 mi Calm Calm - N/A   Scattered Clouds
10:55 PM 62.6 °F - 60.8 °F 94% 30.14 in 10.0 mi Calm Calm - N/A   Clear
11:35 PM 60.8 °F - 60.8 °F 100% 30.14 in 10.0 mi Calm Calm - N/A   Clear
11:55 PM 59.0 °F - 59.0 °F 100% 30.15 in 7.0 mi Calm Calm - N/A   Clear